[[{"header":{"parameterUnit":"m.s-1","parameterCategory":1,"la1":30.2992,"la2":30.254,"lo1":-89.0895,"lo2":-89.0443,"dy":0.0025,"dx":0.0025,"nx":19,"ny":19,"refTime":"2026-04-10T09:00:00:Z","depth":0,"parameterNumber":2,"parameterNumberName":"U-component_of_WINDS"},"data":[0,0,0,-1.4487,-1.4489,-1.4564,-1.4564,-1.4665,-1.4666,0,0,0,0,0,0,0,0,0,0,0,-1.4468,-1.4469,-1.4487,-1.4489,-1.4564,-1.4564,-1.4665,-1.4666,0,0,0,0,0,0,0,0,0,0,0,-1.4468,-1.4469,-1.447,-1.4489,-1.4563,-1.4564,-1.4665,-1.4606,0,0,0,0,0,0,0,0,0,0,-1.4533,-1.4518,-1.4469,-1.447,-1.449,-1.4563,-1.4564,-1.4603,-1.461,-1.4634,0,-1.4655,0,-1.4662,-1.4673,-1.4674,0,0,0,-1.4487,-1.4513,-1.453,-1.447,-1.4491,-1.4563,-1.4529,-1.4607,-1.4614,-1.4642,-1.4657,-1.466,-1.4664,-1.4674,-1.4674,-1.482,-1.4821,0,0,-1.4482,-1.4483,-1.4525,-1.4535,-1.4524,-1.4527,-1.4532,-1.4611,-1.4627,-1.4657,-1.4663,-1.4666,-1.4675,-1.4675,-1.482,-1.4821,0,0,0,-1.4472,-1.448,-1.4496,-1.4531,-1.4544,-1.4529,-1.4535,-1.4623,-1.4628,-1.4664,-1.4667,-1.4675,-1.4676,-1.4819,-1.482,-1.4861,0,0,0,-1.447,-1.4474,-1.4494,-1.4495,-1.4543,-1.4585,-1.4545,-1.4623,-1.4632,-1.4666,-1.4675,-1.4678,-1.4818,-1.4819,-1.4858,-1.488,0,0,0,-1.4462,-1.4473,-1.4485,-1.4495,-1.4527,-1.4583,-1.4593,-1.4625,-1.4634,-1.4674,-1.4678,-1.4817,-1.4819,-1.4855,-1.4876,-1.492,0,0,0,-1.4454,-1.4519,-1.4486,-1.456,-1.4527,-1.4608,-1.4592,-1.4653,-1.4691,-1.4676,-1.4818,-1.482,-1.4854,-1.4873,-1.4917,-1.4958,-1.4975,0,0,-1.4537,-1.4529,-1.4573,-1.4545,-1.4633,-1.4597,-1.4691,-1.4725,-1.4727,-1.4789,-1.4793,-1.4859,-1.4875,-1.492,-1.5068,-1.5082,0,0,0,-1.4599,-1.4631,-1.4654,-1.4691,-1.472,-1.4747,-1.4767,-1.478,-1.4833,-1.4759,-1.4886,-1.4896,-1.4922,-1.4942,-1.4953,-1.4976,-1.4829,-1.4828,-1.4828,-1.4716,-1.4718,-1.4791,-1.4802,-1.4838,-1.486,-1.489,-1.4912,-1.4901,-1.4931,-1.495,-1.504,-1.5063,-1.5071,-1.5095,-1.4971,-1.4971,-1.4971,-1.4971,-1.4838,-1.4884,-1.487,-1.4936,-1.4938,-1.4993,-1.5017,-1.5008,-1.5061,-1.5025,-1.5048,-1.5009,-1.5086,-1.5107,-1.4974,-1.4974,-1.4973,-1.4973,-1.4973,-1.4915,-1.4938,-1.4953,-1.501,-1.5053,-1.5062,-1.5114,-1.5113,-1.5112,-1.5135,-1.5156,-1.5155,-1.5155,-1.5145,-1.5145,-1.5146,-1.5146,-1.5146,-1.5146,-1.499,-1.5007,-1.5051,-1.5088,-1.5114,-1.5147,-1.5171,-1.5196,-1.5224,-1.5219,-1.5219,-1.5207,-1.5093,-1.5065,-1.5151,-1.515,-1.515,-1.5149,-1.5149,-1.5114,-1.5087,-1.5155,-1.518,-1.5226,-1.527,-1.5269,-1.5321,-1.5341,-1.5368,-1.5351,-1.5266,-1.5259,-1.5249,-1.5226,-1.5349,-1.5349,-1.5349,-1.5349,-1.5181,-1.5177,-1.5248,-1.5289,-1.533,-1.5336,-1.5415,-1.5435,-1.5451,-1.5465,-1.5447,-1.5416,-1.5407,-1.5404,-1.5392,-1.537,-1.5527,-1.5527,-1.5528,-1.5258,-1.5259,-1.5326,-1.5342,-1.5378,-1.541,-1.5484,-1.5533,-1.5546,-1.5535,-1.5476,-1.5468,-1.5418,-1.5402,-1.5389,-1.537,-1.533,0,0]},{"header":{"parameterUnit":"m.s-1","parameterCategory":1,"la1":30.2992,"la2":30.254,"lo1":-89.0895,"lo2":-89.0443,"dy":0.0025,"dx":0.0025,"nx":19,"ny":19,"refTime":"2026-04-10T09:00:00:Z","depth":0,"parameterNumber":3,"parameterNumberName":"V-component_of_WINDS"},"data":[0,0,0,2.0843,2.0844,2.0898,2.0898,2.0963,2.0964,0,0,0,0,0,0,0,0,0,0,0,2.0827,2.0827,2.0843,2.0844,2.0898,2.0898,2.0963,2.0964,0,0,0,0,0,0,0,0,0,0,0,2.0827,2.0827,2.0828,2.0844,2.0898,2.0898,2.0963,2.0923,0,0,0,0,0,0,0,0,0,0,2.0871,2.0857,2.0827,2.0828,2.0845,2.0898,2.0898,2.0921,2.0926,2.0938,0,2.0951,0,2.0959,2.0968,2.0969,0,0,0,2.0843,2.0854,2.0868,2.0828,2.0845,2.0898,2.0873,2.0924,2.0929,2.0944,2.0952,2.0955,2.096,2.0969,2.0969,2.1048,2.1049,0,0,2.084,2.0836,2.0865,2.0872,2.0866,2.0872,2.0875,2.0927,2.0935,2.0953,2.0956,2.0961,2.0969,2.097,2.1048,2.1048,0,0,0,2.0832,2.0834,2.0847,2.0869,2.0879,2.0873,2.0877,2.0932,2.0937,2.0957,2.0962,2.097,2.097,2.1048,2.1048,2.1065,0,0,0,2.083,2.0829,2.0846,2.0844,2.0878,2.0907,2.0882,2.0934,2.094,2.0962,2.097,2.0971,2.1047,2.1048,2.1063,2.1072,0,0,0,2.0823,2.0829,2.0837,2.0844,2.0867,2.0906,2.0914,2.0935,2.0943,2.0969,2.0971,2.1047,2.1048,2.1062,2.107,2.1092,0,0,0,2.0814,2.085,2.0837,2.0879,2.0867,2.0917,2.0914,2.0951,2.0975,2.097,2.1047,2.1048,2.1062,2.1069,2.109,2.1109,2.1116,0,0,2.0857,2.0855,2.088,2.087,2.0922,2.0909,2.0962,2.0987,2.0992,2.1029,2.1031,2.1064,2.107,2.1091,2.1161,2.1167,0,0,0,2.0892,2.091,2.0924,2.0948,2.097,2.0988,2.1006,2.1015,2.1046,2.1011,2.1077,2.1082,2.1094,2.1103,2.1108,2.1118,2.1052,2.1052,2.1052,2.0947,2.0953,2.0994,2.1006,2.1029,2.1047,2.1066,2.108,2.1079,2.1094,2.1105,2.1147,2.1157,2.1161,2.1171,2.1116,2.1116,2.1116,2.1116,2.101,2.1035,2.1033,2.1073,2.1078,2.111,2.1128,2.1125,2.1155,2.1139,2.115,2.1132,2.1167,2.1177,2.1117,2.1117,2.1117,2.1117,2.1117,2.1046,2.1059,2.1071,2.1105,2.1131,2.1141,2.117,2.1173,2.1176,2.1187,2.1198,2.1198,2.1197,2.1192,2.1193,2.1193,2.1193,2.1193,2.1193,2.1078,2.1091,2.1115,2.1141,2.1156,2.1176,2.1194,2.1209,2.1225,2.1225,2.1225,2.1221,2.117,2.1157,2.1195,2.1195,2.1195,2.1194,2.1194,2.1139,2.1126,2.1164,2.1179,2.1208,2.1233,2.1237,2.1266,2.1278,2.1291,2.1285,2.1247,2.1245,2.1241,2.1229,2.1285,2.1285,2.1285,2.1285,2.1168,2.1168,2.1207,2.1231,2.1255,2.1263,2.1303,2.1317,2.1328,2.1336,2.1328,2.1314,2.131,2.131,2.1304,2.1294,2.1364,2.1364,2.1364,2.1205,2.1207,2.1242,2.1255,2.1278,2.1297,2.1334,2.136,2.137,2.1368,2.1341,2.1338,2.1315,2.1307,2.1303,2.1295,2.1276,0,0]}]]